| time (UTC) | temp F | wind direction | speed MPH | gust MPH | rain 1hr in | rain 24hr in | rain mn in | humidity % | barometer mb |
| 20260831160319 | 86 | 138 | 1.0 | 4.0 | 0.00 | 0.00 | 0.00 | ||
| 20260831155814 | 87 | 63 | 0.0 | 4.0 | 0.00 | 0.00 | 0.00 | ||
| 20260831155310 | 85 | 177 | 0.0 | 4.0 | 0.00 | 0.00 | 0.00 | ||
| 20260831154805 | 87 | 177 | 0.0 | 4.0 | 0.00 | 0.00 | 0.00 | ||
| 20260831154300 | 89 | 197 | 1.0 | 5.0 | 0.00 | 0.00 | 0.00 | ||
| 20260831153755 | 87 | 44 | 1.0 | 4.0 | 0.00 | 0.00 | 0.00 | ||
| 20260831152743 | 88 | 25 | 1.0 | 7.0 | 0.00 | 0.00 | 0.00 | ||
| 20260831152238 | 87 | 114 | 3.0 | 6.0 | 0.00 | 0.00 | 0.00 | ||
| 20260831151733 | 89 | 104 | 4.0 | 3.0 | 0.00 | 0.00 | 0.00 | ||
| 20260831151228 | 88 | 39 | 0.0 | 3.0 | 0.00 | 0.00 | 0.00 | ||
| 20260831150724 | 87 | 193 | 0.0 | 5.0 | 0.00 | 0.00 | 0.00 | ||
| 20260831150216 | 86 | 359 | 0.0 | 4.0 | 0.00 | 0.00 | 0.00 | ||
| 20260831145710 | 87 | 105 | 0.0 | 2.0 | 0.00 | 0.00 | 0.00 | ||
| 20260831145206 | 85 | 79 | 0.0 | 4.0 | 0.00 | 0.00 | 0.00 | ||
| 20260831144701 | 85 | 11 | 0.0 | 4.0 | 0.00 | 0.00 | 0.00 | ||
| 20260831144156 | 85 | 27 | 4.0 | 3.0 | 0.00 | 0.00 | 0.00 | ||
| 20260831143650 | 80 | 60 | 1.0 | 3.0 | 0.00 | 0.00 | 0.00 | ||
| 20260831143143 | 80 | 330 | 1.0 | 2.0 | 0.00 | 0.00 | 0.00 | ||
| 20260831142638 | 80 | 83 | 0.0 | 2.0 | 0.00 | 0.00 | 0.00 | ||
| 20260831142133 | 80 | 62 | 1.0 | 5.0 | 0.00 | 0.00 | 0.00 | ||
| 20260831141124 | 79 | 4 | 3.0 | 5.0 | 0.00 | 0.00 | 0.00 | ||
| 20260831140110 | 79 | 23 | 0.0 | 2.0 | 0.00 | 0.00 | 0.00 | ||
| 20260831135606 | 80 | 44 | 0.0 | 4.0 | 0.00 | 0.00 | 0.00 | ||
| 20260831134556 | 79 | 31 | 1.0 | 3.0 | 0.00 | 0.00 | 0.00 | ||
| 20260831134052 | 77 | 37 | 1.0 | 4.0 | 0.00 | 0.00 | 0.00 | ||
| 20260831133547 | 77 | 353 | 2.0 | 2.0 | 0.00 | 0.00 | 0.00 | ||
| 20260831132533 | 77 | 37 | 1.0 | 4.0 | 0.00 | 0.00 | 0.00 | ||
| 20260831132029 | 78 | 39 | 0.0 | 1.0 | 0.00 | 0.00 | 0.00 | ||
| 20260831131018 | 76 | 31 | 0.0 | 0.0 | 0.00 | 0.00 | 0.00 | ||
| 20260831130513 | 75 | 31 | 0.0 | 2.0 | 0.00 | 0.00 | 0.00 | ||
| 20260831130006 | 75 | 41 | 0.0 | 4.0 | 0.00 | 0.00 | 0.00 | ||
| 20260831125501 | 74 | 24 | 4.0 | 0.0 | 0.00 | 0.00 | 0.00 | ||
| 20260831124956 | 74 | 200 | 0.0 | 0.0 | 0.00 | 0.00 | 0.00 | ||
| 20260831124451 | 73 | 200 | 0.0 | 0.0 | 0.00 | 0.00 | 0.00 | ||
| 20260831123442 | 72 | 200 | 0.0 | 0.0 | 0.00 | 0.00 | 0.00 | ||
| 20260831122931 | 73 | 200 | 0.0 | 0.0 | 0.00 | 0.00 | 0.00 | ||
| 20260831122426 | 72 | 200 | 0.0 | 0.0 | 0.00 | 0.00 | 0.00 | ||
| 20260831121921 | 71 | 200 | 0.0 | 0.0 | 0.00 | 0.00 | 0.00 | ||
| 20260831121413 | 71 | 200 | 0.0 | 0.0 | 0.00 | 0.00 | 0.00 | ||
| 20260831120404 | 70 | 200 | 0.0 | 0.0 | 0.00 | 0.00 | 0.00 | ||
| 20260831115856 | 71 | 200 | 0.0 | 0.0 | 0.00 | 0.00 | 0.00 | ||
| 20260831115352 | 69 | 200 | 0.0 | 0.0 | 0.00 | 0.00 | 0.00 | ||
| 20260831114847 | 70 | 200 | 0.0 | 0.0 | 0.00 | 0.00 | 0.00 | ||
| 20260831114342 | 70 | 200 | 0.0 | 0.0 | 0.00 | 0.00 | 0.00 | ||
| 20260831113837 | 69 | 200 | 0.0 | 0.0 | 0.00 | 0.00 | 0.00 | ||
| 20260831113332 | 70 | 200 | 0.0 | 0.0 | 0.00 | 0.00 | 0.00 | ||
| 20260831112825 | 69 | 200 | 0.0 | 0.0 | 0.00 | 0.00 | 0.00 | ||
| 20260831111815 | 68 | 200 | 0.0 | 0.0 | 0.00 | 0.00 | 0.00 | ||
| 20260831111309 | 68 | 200 | 0.0 | 0.0 | 0.00 | 0.00 | 0.00 | ||
| 20260831110804 | 68 | 200 | 0.0 | 0.0 | 0.00 | 0.00 | 0.00 | ||
| 20260831110749 | 69 | 200 | 0.0 | 0.0 | 0.00 | 0.00 | 0.00 | ||
| 20260831110300 | 68 | 200 | 0.0 | 0.0 | 0.00 | 0.00 | 0.00 | ||
| 20260831105751 | 69 | 200 | 0.0 | 0.0 | 0.00 | 0.00 | 0.00 | ||
| 20260831105246 | 68 | 200 | 0.0 | 0.0 | 0.00 | 0.00 | 0.00 | ||
| 20260831104740 | 68 | 200 | 0.0 | 0.0 | 0.00 | 0.00 | 0.00 | ||
| 20260831104235 | 68 | 200 | 0.0 | 0.0 | 0.00 | 0.00 | 0.00 | ||
| 20260831103730 | 68 | 200 | 0.0 | 0.0 | 0.00 | 0.00 | 0.00 | ||
| 20260831103225 | 68 | 200 | 0.0 | 0.0 | 0.00 | 0.00 | 0.00 | ||
| 20260831102718 | 69 | 200 | 0.0 | 0.0 | 0.00 | 0.00 | 0.00 | ||
| 20260831102212 | 68 | 200 | 0.0 | 0.0 | 0.00 | 0.00 | 0.00 | ||
| 20260831101707 | 68 | 200 | 0.0 | 0.0 | 0.00 | 0.00 | 0.00 | ||
| 20260831101202 | 68 | 200 | 0.0 | 0.0 | 0.00 | 0.00 | 0.00 | ||
| 20260831100658 | 69 | 200 | 0.0 | 0.0 | 0.00 | 0.00 | 0.00 | ||
| 20260831100153 | 67 | 200 | 0.0 | 0.0 | 0.00 | 0.00 | 0.00 | ||
| 20260831095645 | 68 | 200 | 0.0 | 0.0 | 0.00 | 0.00 | 0.00 | ||
| 20260831095140 | 68 | 200 | 0.0 | 0.0 | 0.00 | 0.00 | 0.00 | ||
| 20260831094635 | 69 | 200 | 0.0 | 0.0 | 0.00 | 0.00 | 0.00 | ||
| 20260831094130 | 69 | 200 | 0.0 | 0.0 | 0.00 | 0.00 | 0.00 | ||
| 20260831093625 | 68 | 200 | 0.0 | 0.0 | 0.00 | 0.00 | 0.00 | ||
| 20260831092613 | 69 | 200 | 0.0 | 0.0 | 0.00 | 0.00 | 0.00 | ||
| 20260831092108 | 68 | 200 | 0.0 | 0.0 | 0.00 | 0.00 | 0.00 | ||
| 20260831091603 | 69 | 200 | 0.0 | 0.0 | 0.00 | 0.00 | 0.00 | ||
| 20260831091056 | 68 | 200 | 0.0 | 0.0 | 0.00 | 0.00 | 0.00 | ||
| 20260831090551 | 69 | 200 | 0.0 | 0.0 | 0.00 | 0.00 | 0.00 | ||
| 20260831090047 | 68 | 200 | 0.0 | 0.0 | 0.00 | 0.00 | 0.00 | ||
| 20260831085539 | 69 | 200 | 0.0 | 0.0 | 0.00 | 0.00 | 0.00 | ||
| 20260831085034 | 68 | 200 | 0.0 | 0.0 | 0.00 | 0.00 | 0.00 | ||
| 20260831084529 | 68 | 200 | 0.0 | 0.0 | 0.00 | 0.00 | 0.00 | ||
| 20260831084024 | 69 | 200 | 0.0 | 0.0 | 0.00 | 0.00 | 0.00 | ||
| 20260831083519 | 69 | 200 | 0.0 | 0.0 | 0.00 | 0.00 | 0.00 | ||
| 20260831083015 | 69 | 200 | 0.0 | 0.0 | 0.00 | 0.00 | 0.00 | ||
| 20260831082507 | 69 | 200 | 0.0 | 0.0 | 0.00 | 0.00 | 0.00 | ||
| 20260831082001 | 68 | 200 | 0.0 | 0.0 | 0.00 | 0.00 | 0.00 | ||
| 20260831081456 | 68 | 200 | 0.0 | 0.0 | 0.00 | 0.00 | 0.00 | ||
| 20260831080951 | 70 | 200 | 0.0 | 0.0 | 0.00 | 0.00 | 0.00 | ||
| 20260831080447 | 68 | 200 | 0.0 | 0.0 | 0.00 | 0.00 | 0.00 | ||
| 20260831075942 | 69 | 200 | 0.0 | 0.0 | 0.00 | 0.00 | 0.00 | ||
| 20260831074423 | 69 | 200 | 0.0 | 0.0 | 0.00 | 0.00 | 0.00 | ||
| 20260831073918 | 69 | 200 | 0.0 | 0.0 | 0.00 | 0.00 | 0.00 | ||
| 20260831073414 | 68 | 200 | 0.0 | 0.0 | 0.00 | 0.00 | 0.00 | ||
| 20260831072401 | 68 | 200 | 0.0 | 0.0 | 0.00 | 0.00 | 0.00 | ||
| 20260831071351 | 68 | 200 | 0.0 | 0.0 | 0.00 | 0.00 | 0.00 | ||
| 20260831070847 | 68 | 200 | 0.0 | 0.0 | 0.00 | 0.00 | 0.00 | ||
| 20260831070342 | 69 | 200 | 0.0 | 0.0 | 0.00 | 0.00 | 0.00 | ||
| 20260831065837 | 69 | 200 | 0.0 | 0.0 | 0.00 | 0.00 | 0.00 | ||
| 20260831065329 | 69 | 200 | 0.0 | 0.0 | 0.00 | 0.00 | 0.00 | ||
| 20260831064824 | 68 | 200 | 0.0 | 0.0 | 0.00 | 0.00 | 0.00 | ||
| 20260831064319 | 68 | 200 | 0.0 | 0.0 | 0.00 | 0.00 | 0.00 | ||
| 20260831063813 | 68 | 200 | 0.0 | 0.0 | 0.00 | 0.00 | 0.00 | ||
| 20260831063308 | 67 | 200 | 0.0 | 0.0 | 0.00 | 0.00 | 0.00 | ||
| 20260831062803 | 68 | 200 | 0.0 | 0.0 | 0.00 | 0.00 | 0.00 | ||
| 20260831062255 | 68 | 200 | 0.0 | 0.0 | 0.00 | 0.00 | 0.00 | ||
| 20260831061750 | 67 | 200 | 0.0 | 0.0 | 0.00 | 0.00 | 0.00 | ||
| 20260831061245 | 69 | 200 | 0.0 | 0.0 | 0.00 | 0.00 | 0.00 | ||
| 20260831060740 | 69 | 200 | 0.0 | 0.0 | 0.00 | 0.00 | 0.00 | ||
| 20260831060235 | 69 | 200 | 0.0 | 0.0 | 0.00 | 0.00 | 0.00 | ||
| 20260831055730 | 69 | 200 | 0.0 | 0.0 | 0.00 | 0.00 | 0.00 | ||
| 20260831055222 | 69 | 200 | 0.0 | 0.0 | 0.00 | 0.00 | 0.00 | ||
| 20260831054718 | 69 | 200 | 0.0 | 0.0 | 0.00 | 0.00 | 0.00 | ||
| 20260831054212 | 69 | 200 | 0.0 | 0.0 | 0.00 | 0.00 | 0.00 | ||
| 20260831053707 | 69 | 200 | 0.0 | 0.0 | 0.00 | 0.00 | 0.00 | ||
| 20260831053202 | 68 | 200 | 0.0 | 0.0 | 0.00 | 0.00 | 0.00 | ||
| 20260831052658 | 69 | 200 | 0.0 | 0.0 | 0.00 | 0.00 | 0.00 | ||
| 20260831052150 | 70 | 200 | 0.0 | 0.0 | 0.00 | 0.00 | 0.00 | ||
| 20260831051645 | 69 | 200 | 0.0 | 0.0 | 0.00 | 0.00 | 0.00 | ||
| 20260831051140 | 69 | 200 | 0.0 | 0.0 | 0.00 | 0.00 | 0.00 | ||
| 20260831050636 | 69 | 200 | 0.0 | 0.0 | 0.00 | 0.00 | 0.00 | ||
| 20260831050131 | 69 | 200 | 0.0 | 0.0 | 0.00 | 0.00 | 0.00 | ||
| 20260831045625 | 68 | 200 | 0.0 | 0.0 | 0.00 | 0.00 | 0.00 | ||
| 20260831044613 | 69 | 200 | 0.0 | 0.0 | 0.00 | 0.00 | 0.00 | ||
| 20260831044108 | 69 | 200 | 0.0 | 0.0 | 0.00 | 0.00 | 0.00 | ||
| 20260831043603 | 69 | 200 | 0.0 | 0.0 | 0.00 | 0.00 | 0.00 | ||
| 20260831043058 | 70 | 200 | 0.0 | 0.0 | 0.00 | 0.00 | 0.00 | ||
| 20260831042553 | 71 | 200 | 0.0 | 0.0 | 0.00 | 0.00 | 0.00 | ||
| 20260831042046 | 70 | 200 | 0.0 | 0.0 | 0.00 | 0.00 | 0.00 | ||
| 20260831041541 | 70 | 200 | 0.0 | 0.0 | 0.00 | 0.00 | 0.00 | ||
| 20260831041036 | 71 | 200 | 0.0 | 0.0 | 0.00 | 0.00 | 0.00 | ||
| 20260831040531 | 71 | 200 | 0.0 | 0.0 | 0.00 | 0.00 | 0.00 | ||
| 20260831035522 | 70 | 200 | 0.0 | 0.0 | 0.00 | 0.00 | 0.00 | ||
| 20260831035014 | 70 | 200 | 0.0 | 0.0 | 0.00 | 0.00 | 0.00 | ||
| 20260831034509 | 72 | 200 | 0.0 | 0.0 | 0.00 | 0.00 | 0.00 | ||
| 20260831034004 | 71 | 200 | 0.0 | 0.0 | 0.00 | 0.00 | 0.00 | ||
| 20260831033459 | 71 | 200 | 0.0 | 0.0 | 0.00 | 0.00 | 0.00 | ||
| 20260831032955 | 70 | 200 | 0.0 | 0.0 | 0.00 | 0.00 | 0.00 | ||
| 20260831032450 | 71 | 200 | 0.0 | 0.0 | 0.00 | 0.00 | 0.00 | ||
| 20260831031941 | 71 | 200 | 0.0 | 0.0 | 0.00 | 0.00 | 0.00 | ||
| 20260831031436 | 71 | 200 | 0.0 | 0.0 | 0.00 | 0.00 | 0.00 | ||
| 20260831030931 | 72 | 200 | 0.0 | 0.0 | 0.00 | 0.00 | 0.00 | ||
| 20260831030427 | 71 | 200 | 0.0 | 0.0 | 0.00 | 0.00 | 0.00 | ||
| 20260831025922 | 71 | 200 | 0.0 | 0.0 | 0.00 | 0.00 | 0.00 | ||
| 20260831025417 | 71 | 200 | 0.0 | 0.0 | 0.00 | 0.00 | 0.00 | ||
| 20260831024908 | 71 | 200 | 0.0 | 0.0 | 0.00 | 0.00 | 0.00 | ||
| 20260831023354 | 71 | 200 | 0.0 | 0.0 | 0.00 | 0.00 | 0.00 | ||
| 20260831022849 | 70 | 200 | 0.0 | 0.0 | 0.00 | 0.00 | 0.00 | ||
| 20260831022344 | 71 | 200 | 0.0 | 0.0 | 0.00 | 0.00 | 0.00 | ||
| 20260831021835 | 72 | 200 | 0.0 | 0.0 | 0.00 | 0.00 | 0.00 | ||
| 20260831021330 | 72 | 200 | 0.0 | 2.0 | 0.00 | 0.00 | 0.00 | ||
| 20260831020825 | 71 | 200 | 0.0 | 2.0 | 0.00 | 0.00 | 0.00 | ||
| 20260831015815 | 72 | 181 | 0.0 | 0.0 | 0.00 | 0.00 | 0.00 | ||
| 20260831015309 | 71 | 181 | 0.0 | 0.0 | 0.00 | 0.00 | 0.00 | ||
| 20260831014802 | 73 | 181 | 0.0 | 0.0 | 0.00 | 0.00 | 0.00 | ||
| 20260831014257 | 72 | 181 | 0.0 | 0.0 | 0.00 | 0.00 | 0.00 | ||
| 20260831013752 | 71 | 181 | 0.0 | 5.0 | 0.00 | 0.00 | 0.00 | ||
| 20260831013248 | 72 | 198 | 2.0 | 4.0 | 0.00 | 0.00 | 0.00 | ||
| 20260831012743 | 73 | 232 | 3.0 | 4.0 | 0.00 | 0.00 | 0.00 | ||
| 20260831012238 | 73 | 210 | 3.0 | 7.0 | 0.00 | 0.00 | 0.00 | ||
| 20260831011730 | 72 | 194 | 4.0 | 8.0 | 0.00 | 0.00 | 0.00 | ||
| 20260831011226 | 73 | 238 | 5.0 | 5.0 | 0.00 | 0.00 | 0.00 | ||
| 20260831010721 | 73 | 204 | 3.0 | 6.0 | 0.00 | 0.00 | 0.00 | ||
| 20260831010216 | 74 | 212 | 5.0 | 10.0 | 0.00 | 0.00 | 0.00 | ||
| 20260831005711 | 75 | 210 | 4.0 | 9.0 | 0.00 | 0.00 | 0.00 | ||
| 20260831005207 | 74 | 122 | 3.0 | 6.0 | 0.00 | 0.00 | 0.00 | ||
| 20260831004659 | 74 | 152 | 4.0 | 7.0 | 0.00 | 0.00 | 0.00 | ||
| 20260831004154 | 75 | 160 | 3.0 | 8.0 | 0.00 | 0.00 | 0.00 | ||
| 20260831003649 | 76 | 155 | 8.0 | 7.0 | 0.00 | 0.00 | 0.00 | ||
| 20260831003144 | 76 | 120 | 6.0 | 8.0 | 0.00 | 0.00 | 0.00 | ||
| 20260831002640 | 76 | 179 | 7.0 | 9.0 | 0.00 | 0.00 | 0.00 | ||
| 20260831002135 | 77 | 170 | 5.0 | 9.0 | 0.00 | 0.00 | 0.00 | ||
| 20260831001627 | 78 | 179 | 7.0 | 9.0 | 0.00 | 0.00 | 0.00 | ||
| 20260831001123 | 77 | 170 | 6.0 | 9.0 | 0.00 | 0.00 | 0.00 | ||
| 20260831000618 | 76 | 169 | 4.0 | 9.0 | 0.00 | 0.00 | 0.00 | ||
| 20260831000113 | 77 | 159 | 2.0 | 4.0 | 0.00 | 0.00 | 0.00 | ||
| 20260830235607 | 77 | 111 | 0.0 | 2.0 | 0.00 | 0.00 | 0.00 | ||
| 20260830235101 | 78 | 113 | 2.0 | 2.0 | 0.00 | 0.00 | 0.00 | ||
| 20260830234552 | 79 | 111 | 1.0 | 1.0 | 0.00 | 0.00 | 0.00 | ||
| 20260830234047 | 79 | 191 | 0.0 | 0.0 | 0.00 | 0.00 | 0.00 | ||
| 20260830233542 | 79 | 191 | 0.0 | 0.0 | 0.00 | 0.00 | 0.00 | ||
| 20260830233036 | 81 | 191 | 0.0 | 0.0 | 0.00 | 0.00 | 0.00 | ||
| 20260830232531 | 82 | 191 | 0.0 | 0.0 | 0.00 | 0.00 | 0.00 | ||
| 20260830232026 | 83 | 191 | 0.0 | 0.0 | 0.00 | 0.00 | 0.00 | ||
| 20260830231518 | 82 | 191 | 0.0 | 0.0 | 0.00 | 0.00 | 0.00 | ||
| 20260830231014 | 82 | 191 | 0.0 | 0.0 | 0.00 | 0.00 | 0.00 | ||
| 20260830230509 | 85 | 191 | 0.0 | 0.0 | 0.00 | 0.00 | 0.00 | ||
| 20260830230004 | 85 | 191 | 0.0 | 0.0 | 0.00 | 0.00 | 0.00 | ||
| 20260830225500 | 84 | 191 | 0.0 | 0.0 | 0.00 | 0.00 | 0.00 | ||
| 20260830224955 | 84 | 191 | 0.0 | 0.0 | 0.00 | 0.00 | 0.00 | ||
| 20260830224446 | 83 | 191 | 0.0 | 0.0 | 0.00 | 0.00 | 0.00 | ||
| 20260830223942 | 85 | 191 | 0.0 | 0.0 | 0.00 | 0.00 | 0.00 | ||
| 20260830223437 | 84 | 191 | 0.0 | 0.0 | 0.00 | 0.00 | 0.00 | ||
| 20260830222932 | 83 | 191 | 0.0 | 0.0 | 0.00 | 0.00 | 0.00 | ||
| 20260830222427 | 82 | 191 | 0.0 | 0.0 | 0.00 | 0.00 | 0.00 | ||
| 20260830221923 | 83 | 191 | 0.0 | 0.0 | 0.00 | 0.00 | 0.00 | ||
| 20260830221415 | 83 | 191 | 0.0 | 2.0 | 0.00 | 0.00 | 0.00 | ||
| 20260830220910 | 83 | 191 | 0.0 | 3.0 | 0.00 | 0.00 | 0.00 | ||
| 20260830220405 | 83 | 255 | 3.0 | 2.0 | 0.00 | 0.00 | 0.00 | ||
| 20260830215901 | 83 | 226 | 1.0 | 3.0 | 0.00 | 0.00 | 0.00 | ||
| 20260830215356 | 83 | 253 | 2.0 | 4.0 | 0.00 | 0.00 | 0.00 | ||
| 20260830214851 | 85 | 242 | 3.0 | 6.0 | 0.00 | 0.00 | 0.00 | ||
| 20260830214344 | 87 | 249 | 5.0 | 6.0 | 0.00 | 0.00 | 0.00 | ||
| 20260830213839 | 88 | 225 | 5.0 | 5.0 | 0.00 | 0.00 | 0.00 | ||
| 20260830213334 | 88 | 226 | 3.0 | 6.0 | 0.00 | 0.00 | 0.00 | ||
| 20260830212829 | 88 | 162 | 3.0 | 7.0 | 0.00 | 0.00 | 0.00 | ||
| 20260830212324 | 91 | 222 | 4.0 | 6.0 | 0.00 | 0.00 | 0.00 | ||
| 20260830211312 | 93 | 111 | 1.0 | 5.0 | 0.00 | 0.00 | 0.00 | ||
| 20260830210807 | 92 | 110 | 4.0 | 5.0 | 0.00 | 0.00 | 0.00 | ||
| 20260830210302 | 91 | 169 | 2.0 | 7.0 | 0.00 | 0.00 | 0.00 | ||
| 20260830205757 | 91 | 129 | 5.0 | 7.0 | 0.00 | 0.00 | 0.00 | ||
| 20260830205252 | 91 | 125 | 3.0 | 6.0 | 0.00 | 0.00 | 0.00 | ||
| 20260830204747 | 92 | 65 | 3.0 | 7.0 | 0.00 | 0.00 | 0.00 | ||
| 20260830204240 | 92 | 124 | 2.0 | 4.0 | 0.00 | 0.00 | 0.00 | ||
| 20260830203735 | 90 | 162 | 2.0 | 5.0 | 0.00 | 0.00 | 0.00 | ||
| 20260830203230 | 86 | 114 | 5.0 | 5.0 | 0.00 | 0.00 | 0.00 | ||
| 20260830202725 | 86 | 169 | 3.0 | 7.0 | 0.00 | 0.00 | 0.00 | ||
| 20260830201716 | 86 | 156 | 6.0 | 6.0 | 0.00 | 0.00 | 0.00 | ||
| 20260830201205 | 87 | 125 | 4.0 | 4.0 | 0.00 | 0.00 | 0.00 | ||
| 20260830200700 | 87 | 87 | 1.0 | 3.0 | 0.00 | 0.00 | 0.00 | ||
| 20260830200156 | 86 | 158 | 0.0 | 2.0 | 0.00 | 0.00 | 0.00 | ||
| 20260830195650 | 86 | 158 | 0.0 | 4.0 | 0.00 | 0.00 | 0.00 | ||
| 20260830195145 | 87 | 108 | 2.0 | 6.0 | 0.00 | 0.00 | 0.00 | ||
| 20260830194640 | 85 | 103 | 4.0 | 4.0 | 0.00 | 0.00 | 0.00 | ||
| 20260830194131 | 86 | 141 | 3.0 | 4.0 | 0.00 | 0.00 | 0.00 | ||
| 20260830193627 | 86 | 232 | 1.0 | 5.0 | 0.00 | 0.00 | 0.00 | ||
| 20260830193122 | 85 | 173 | 2.0 | 4.0 | 0.00 | 0.00 | 0.00 | ||
| 20260830192617 | 84 | 207 | 2.0 | 7.0 | 0.00 | 0.00 | 0.00 | ||
| 20260830192112 | 84 | 179 | 4.0 | 6.0 | 0.00 | 0.00 | 0.00 | ||
| 20260830191608 | 86 | 104 | 3.0 | 5.0 | 0.00 | 0.00 | 0.00 | ||
| 20260830191100 | 86 | 150 | 1.0 | 6.0 | 0.00 | 0.00 | 0.00 | ||
| 20260830190555 | 87 | 219 | 1.0 | 9.0 | 0.00 | 0.00 | 0.00 | ||
| 20260830190050 | 90 | 186 | 4.0 | 8.0 | 0.00 | 0.00 | 0.00 | ||
| 20260830185544 | 89 | 132 | 4.0 | 6.0 | 0.00 | 0.00 | 0.00 | ||
| 20260830185039 | 88 | 117 | 3.0 | 8.0 | 0.00 | 0.00 | 0.00 | ||
| 20260830184026 | 85 | 173 | 4.0 | 7.0 | 0.00 | 0.00 | 0.00 | ||
| 20260830183522 | 83 | 93 | 3.0 | 8.0 | 0.00 | 0.00 | 0.00 | ||
| 20260830183017 | 82 | 132 | 4.0 | 5.0 | 0.00 | 0.00 | 0.00 | ||
| 20260830182512 | 83 | 143 | 2.0 | 8.0 | 0.00 | 0.00 | 0.00 | ||
| 20260830182007 | 83 | 142 | 4.0 | 9.0 | 0.00 | 0.00 | 0.00 | ||
| 20260830181503 | 84 | 165 | 6.0 | 12.0 | 0.00 | 0.00 | 0.00 | ||
| 20260830180955 | 85 | 138 | 6.0 | 9.0 | 0.00 | 0.00 | 0.00 | ||
| 20260830180450 | 87 | 138 | 8.0 | 10.0 | 0.00 | 0.00 | 0.00 | ||
| 20260830175945 | 85 | 184 | 5.0 | 14.0 | 0.00 | 0.00 | 0.00 | ||
| 20260830175440 | 85 | 172 | 6.0 | 10.0 | 0.00 | 0.00 | 0.00 | ||
| 20260830174936 | 82 | 148 | 6.0 | 12.0 | 0.00 | 0.00 | 0.00 | ||
| 20260830174431 | 83 | 238 | 7.0 | 10.0 | 0.00 | 0.00 | 0.00 | ||
| 20260830173923 | 83 | 166 | 4.0 | 11.0 | 0.00 | 0.00 | 0.00 | ||
| 20260830173418 | 81 | 148 | 6.0 | 13.0 | 0.00 | 0.00 | 0.00 | ||
| 20260830172914 | 82 | 215 | 9.0 | 11.0 | 0.00 | 0.00 | 0.00 | ||
| 20260830172409 | 82 | 158 | 6.0 | 14.0 | 0.00 | 0.00 | 0.00 | ||
| 20260830171904 | 83 | 145 | 10.0 | 9.0 | 0.00 | 0.00 | 0.00 | ||
| 20260830171359 | 82 | 218 | 5.0 | 12.0 | 0.00 | 0.00 | 0.00 | ||
| 20260830170852 | 82 | 124 | 3.0 | 13.0 | 0.00 | 0.00 | 0.00 | ||
| 20260830170347 | 82 | 184 | 8.0 | 11.0 | 0.00 | 0.00 | 0.00 | ||
| 20260830165842 | 83 | 181 | 6.0 | 12.0 | 0.00 | 0.00 | 0.00 | ||
| 20260830164832 | 83 | 203 | 5.0 | 10.0 | 0.00 | 0.00 | 0.00 | ||
| 20260830164328 | 83 | 201 | 6.0 | 9.0 | 0.00 | 0.00 | 0.00 | ||
| 20260830163819 | 80 | 225 | 4.0 | 7.0 | 0.00 | 0.00 | 0.00 | ||
| 20260830163314 | 79 | 172 | 5.0 | 7.0 | 0.00 | 0.00 | 0.00 | ||
| 20260830162807 | 78 | 163 | 2.0 | 5.0 | 0.00 | 0.00 | 0.00 | ||
| 20260830162305 | 78 | 145 | 4.0 | 9.0 | 0.00 | 0.00 | 0.00 | ||
| 20260830161758 | 78 | 176 | 4.0 | 9.0 | 0.00 | 0.00 | 0.00 | ||
| 20260830161253 | 81 | 162 | 6.0 | 9.0 | 0.00 | 0.00 | 0.00 | ||
| 20260830160745 | 80 | 193 | 4.0 | 9.0 | 0.00 | 0.00 | 0.00 |